Weather History for Grand Rapids, MI

Change the Weather History Date:

Tuesday, December 3, 2013

  Actual Average Record
Temperature  
Mean Temperature 34 °F 33 °F  
Max Temperature 36 °F 39 °F 65 °F (2012)
Min Temperature 32 °F 27 °F -6 °F (1976)
Degree Days  
Heating Degree Days 31 32  
Month to date heating degree days 87 94  
Since 1 July heating degree days 1409 1432  
Cooling Degree Days 0 0  
Month to date cooling degree days 0 0  
Year to date cooling degree days 767 699  
Moisture  
Dew Point 29 °F    
Average Humidity 77    
Maximum Humidity 92    
Minimum Humidity 61    
Precipitation  
Precipitation 0.57 in 0.09 in 1.37 in (1982)
Month to date precipitation 0.57 0.28  
Year to date precipitation 43.35 36.05  
Snow  
Snow 0.10 in 0.60 in 4.00 in (1996)
Month to date snowfall 0.1 1.6  
Since 1 July snowfall 2.3 8.9  
Snow Depth T in    
Sea Level Pressure  
Sea Level Pressure 29.84 in    
Wind  
Wind Speed 11 mph (East)    
Max Wind Speed 16 mph    
Max Gust Speed 21 mph    
Visibility 4 miles    
Events Rain , Snow    
T = Trace of Precipitation, MM = Missing Value Source: NWS Daily Summary

Daily Weather History Graph

Daily Weather History Graph

Search for Another Location

Airport:

Trip Planner

Search our weather history database for the weather conditions in past years. The results will help you decide how hot, cold, wet, or windy it might be!

Date:

Astronomy

Dec. 03, 2013 Rise Set
Actual Time 7:55 AM EST 5:08 PM EST
Civil Twilight 7:23 AM EST 5:40 PM EST
Nautical Twilight 6:48 AM EST 6:15 PM EST
Astronomical Twilight 6:14 AM EST 6:49 PM EST
Moon 8:23 AM EST (12/3) 6:11 PM EST (12/3)
Length of Visible Light 10h 16m
Length of Day
9h 12m
New Moon, 1% of the Moon is Illuminated
Dec 3
New Moon
Dec 9
First Quarter
Dec 17
Full
Dec 25
Last Quarter
Jan 1
New

Hourly Weather History & Observations

Time (EST) Temp. Windchill Dew Point Humidity Pressure Visibility Wind Dir Wind Speed Gust Speed Precip Events Conditions
12:53 AM 33.1 °F 26.1 °F 21.9 °F 64% 29.90 in 10.0 mi ESE 8.1 mph - N/A   Overcast
1:53 AM 33.1 °F 24.9 °F 21.9 °F 64% 29.89 in 10.0 mi East 10.4 mph - N/A   Overcast
2:53 AM 33.1 °F 24.9 °F 21.9 °F 64% 29.88 in 10.0 mi East 10.4 mph - N/A   Overcast
3:53 AM 33.1 °F 25.5 °F 23.0 °F 66% 29.88 in 4.0 mi East 9.2 mph - 0.00 in Snow Light Snow
3:59 AM 33.8 °F 26.4 °F 24.8 °F 70% 29.86 in 2.0 mi East 9.2 mph - 0.00 in Snow Light Snow
4:07 AM 32.0 °F 24.8 °F 24.8 °F 75% 29.86 in 1.8 mi East 8.1 mph - 0.00 in Snow Light Snow
4:23 AM 32.0 °F 22.5 °F 26.6 °F 80% 29.84 in 3.0 mi East 12.7 mph - 0.01 in Snow Light Snow
4:53 AM 32.0 °F 22.1 °F 26.1 °F 79% 29.85 in 7.0 mi East 13.8 mph - 0.01 in   Overcast
5:53 AM 33.1 °F 24.4 °F 25.0 °F 72% 29.86 in 9.0 mi East 11.5 mph - N/A   Overcast
6:45 AM 32.0 °F 22.1 °F 26.6 °F 80% 29.83 in 4.0 mi East 13.8 mph - 0.00 in   Light Freezing Drizzle
6:53 AM 32.0 °F 22.1 °F 27.0 °F 82% 29.84 in 4.0 mi East 13.8 mph - 0.00 in   Light Freezing Drizzle
7:06 AM 32.0 °F 22.1 °F 28.4 °F 87% 29.83 in 3.0 mi East 13.8 mph - 0.00 in Rain Light Freezing Rain
7:36 AM 33.8 °F 24.3 °F 28.4 °F 81% 29.83 in 3.0 mi East 13.8 mph - 0.00 in   Light Freezing Drizzle
7:48 AM 33.8 °F 23.9 °F 28.4 °F 81% 29.82 in 4.0 mi East 15.0 mph - 0.00 in   Overcast
7:53 AM 33.1 °F 23.4 °F 28.9 °F 85% 29.85 in 4.0 mi East 13.8 mph - 0.00 in   Overcast
8:53 AM 33.1 °F 23.9 °F 28.9 °F 85% 29.85 in 3.0 mi East 12.7 mph - N/A   Overcast
9:53 AM 34.0 °F 25.0 °F 30.0 °F 85% 29.87 in 4.0 mi East 12.7 mph - 0.00 in   Overcast
10:53 AM 34.0 °F 24.6 °F 30.0 °F 85% 29.87 in 3.0 mi East 13.8 mph - 0.00 in Rain Light Rain
11:12 AM 33.8 °F 24.8 °F 30.2 °F 87% 29.83 in 2.0 mi East 12.7 mph - 0.01 in Rain Rain
11:34 AM 33.8 °F 24.3 °F 30.2 °F 87% 29.83 in 1.5 mi East 13.8 mph - 0.06 in Rain Rain
11:53 AM 35.1 °F 25.9 °F 30.9 °F 85% 29.84 in 1.8 mi East 13.8 mph - 0.09 in Rain Light Rain
12:20 PM 35.6 °F 28.6 °F 32.0 °F 87% 29.82 in 2.0 mi East 9.2 mph - 0.01 in Rain Light Rain
12:53 PM 35.1 °F 26.9 °F 32.0 °F 89% 29.83 in 2.0 mi East 11.5 mph - 0.01 in Rain Light Rain
1:16 PM 35.6 °F 28.6 °F 32.0 °F 87% 29.81 in 1.5 mi ENE 9.2 mph - 0.01 in Rain Light Rain
1:53 PM 35.1 °F 27.4 °F 32.0 °F 89% 29.82 in 1.2 mi East 10.4 mph - 0.04 in Rain Rain
2:53 PM 35.1 °F 26.4 °F 32.0 °F 89% 29.80 in 1.2 mi East 12.7 mph - 0.01 in Rain Light Rain
3:53 PM 35.1 °F 27.4 °F 32.0 °F 89% 29.81 in 1.5 mi ENE 10.4 mph - 0.03 in Rain Rain
4:53 PM 35.1 °F 26.9 °F 32.0 °F 89% 29.81 in 1.8 mi ENE 11.5 mph - 0.07 in Rain Light Rain
5:20 PM 35.6 °F 28.0 °F 32.0 °F 87% 29.79 in 2.5 mi ENE 10.4 mph - 0.00 in Rain Light Rain
5:29 PM 35.6 °F 28.6 °F 32.0 °F 87% 29.79 in 1.8 mi ENE 9.2 mph - 0.00 in   Overcast
5:53 PM 35.1 °F 27.9 °F 32.0 °F 89% 29.81 in 2.5 mi East 9.2 mph - 0.00 in   Overcast
6:53 PM 35.1 °F 27.4 °F 33.1 °F 92% 29.81 in 1.8 mi East 10.4 mph - N/A   Overcast
7:53 PM 36.0 °F 29.6 °F 33.1 °F 89% 29.82 in 1.8 mi East 8.1 mph - 0.03 in Rain Light Rain
8:32 PM 35.6 °F 29.2 °F 33.8 °F 93% 29.79 in 2.0 mi ENE 8.1 mph - 0.02 in Rain Light Rain
8:53 PM 36.0 °F 30.3 °F 33.1 °F 89% 29.82 in 2.5 mi ENE 6.9 mph - 0.02 in Rain Light Rain
9:53 PM 36.0 °F 29.6 °F 33.1 °F 89% 29.84 in 2.5 mi ENE 8.1 mph - 0.00 in Rain Light Rain
10:41 PM 35.6 °F 28.6 °F 33.8 °F 93% 29.81 in 3.0 mi East 9.2 mph - 0.11 in Rain Light Rain
10:53 PM 36.0 °F 29.6 °F 33.1 °F 89% 29.84 in 3.0 mi East 8.1 mph - 0.11 in Rain Light Rain
11:53 PM 36.0 °F 29.0 °F 33.1 °F 89% 29.83 in 5.0 mi East 9.2 mph - 0.01 in   Overcast